Weather History for Silver City, NM

Change the Weather History Date:

Friday, October 25, 2013

  Actual Average (KDMN) Record (KDMN)
Temperature  
Mean Temperature 56 °F 58 °F  
Max Temperature 71 °F 74 °F 87 °F (1950)
Min Temperature 42 °F 42 °F 30 °F (1961)
Degree Days  
Heating Degree Days 8    
Growing Degree Days 6 (Base 50)    
Moisture  
Dew Point 36 °F    
Average Humidity 50    
Maximum Humidity 93    
Minimum Humidity 19    
Precipitation  
Precipitation 0.00 in 0.02 in 1.04 in (1971)
Month to date precipitation 0.92  
Year to date precipitation 9.81  
Sea Level Pressure  
Sea Level Pressure 30.22 in    
Wind  
Wind Speed 8 mph (NNW)    
Max Wind Speed 16 mph    
Max Gust Speed 22 mph    
Visibility 10 miles    
Events Thunderstorm    
T = Trace of Precipitation, MM = Missing Value Source: NWS Daily Summary

Daily Weather History Graph

Daily Weather History Graph

Search for Another Location

Airport:

Trip Planner

Search our weather history database for the weather conditions in past years. The results will help you decide how hot, cold, wet, or windy it might be!

Date:

Astronomy

Oct. 25, 2013 Rise Set
Actual Time 7:24 AM MDT 6:28 PM MDT
Civil Twilight 6:59 AM MDT 6:53 PM MDT
Nautical Twilight 6:30 AM MDT 7:22 PM MDT
Astronomical Twilight 6:01 AM MDT 7:50 PM MDT
Moon 11:55 PM MDT (10/25) 1:01 PM MDT (10/25)
Length of Visible Light 11h 53m
Length of Day
11h 03m
Waning Gibbous, 62% of the Moon is Illuminated
Oct 25
Waning Gibbous
Oct 26
Last Quarter
Nov 3
New
Nov 9
First Quarter
Nov 17
Full

Hourly Weather History & Observations

Time (MDT) Temp. Windchill Dew Point Humidity Pressure Visibility Wind Dir Wind Speed Gust Speed Precip Events Conditions
12:15 AM 64.4 °F - 42.8 °F 45% 30.21 in 10.0 mi ESE 6.9 mph - N/A Thunderstorm Partly Cloudy
12:35 AM 59.0 °F - 44.6 °F 59% 30.19 in 10.0 mi ENE 8.1 mph - N/A Thunderstorm Clear
12:55 AM 57.2 °F - 44.6 °F 63% 30.20 in 10.0 mi ENE 9.2 mph - N/A   Clear
1:15 AM 57.2 °F - 44.6 °F 63% 30.19 in 10.0 mi ENE 8.1 mph - N/A   Clear
1:35 AM 55.4 °F - 42.8 °F 63% 30.19 in 10.0 mi ENE 9.2 mph - N/A   Clear
1:55 AM 55.4 °F - 42.8 °F 63% 30.20 in 10.0 mi NE 10.4 mph - N/A   Clear
2:15 AM 55.4 °F - 42.8 °F 63% 30.20 in 10.0 mi NE 9.2 mph - N/A   Clear
2:35 AM 55.4 °F - 41.0 °F 58% 30.21 in 10.0 mi NNE 5.8 mph - N/A   Clear
2:55 AM 50.0 °F - 44.6 °F 82% 30.21 in 10.0 mi NW 4.6 mph - N/A   Clear
3:15 AM 48.2 °F - 44.6 °F 87% 30.21 in 10.0 mi WNW 8.1 mph - N/A   Clear
3:35 AM 48.2 °F - 44.6 °F 87% 30.21 in 10.0 mi WNW 8.1 mph - N/A   Clear
3:55 AM 46.4 °F 42.4 °F 42.8 °F 87% 30.21 in 10.0 mi NNW 8.1 mph - N/A Thunderstorm Clear
4:15 AM 46.4 °F 42.4 °F 42.8 °F 87% 30.21 in 10.0 mi North 8.1 mph - N/A   Scattered Clouds
4:35 AM 46.4 °F 42.4 °F 42.8 °F 87% 30.21 in 10.0 mi North 8.1 mph - N/A   Overcast
4:55 AM 46.4 °F 43.5 °F 41.0 °F 81% 30.21 in 10.0 mi North 5.8 mph - N/A   Scattered Clouds
5:15 AM 44.6 °F 41.4 °F 41.0 °F 87% 30.21 in 10.0 mi NW 5.8 mph - N/A   Clear
5:35 AM 44.6 °F 40.7 °F 41.0 °F 87% 30.21 in 10.0 mi NNW 6.9 mph - N/A Thunderstorm Clear
5:55 AM 42.8 °F 38.6 °F 41.0 °F 93% 30.22 in 10.0 mi NW 6.9 mph - N/A   Clear
6:15 AM 42.8 °F 38.6 °F 39.2 °F 87% 30.22 in 10.0 mi NNW 6.9 mph - N/A   Scattered Clouds
6:35 AM 44.6 °F 42.2 °F 41.0 °F 87% 30.22 in 10.0 mi North 4.6 mph - N/A   Overcast
6:55 AM 46.4 °F 42.9 °F 41.0 °F 81% 30.23 in 10.0 mi NW 6.9 mph - N/A   Mostly Cloudy
7:15 AM 46.4 °F 43.5 °F 41.0 °F 81% 30.23 in 10.0 mi NW 5.8 mph - N/A   Scattered Clouds
7:35 AM 44.6 °F 40.2 °F 41.0 °F 87% 30.24 in 10.0 mi NW 8.1 mph - N/A   Clear
7:55 AM 44.6 °F 40.7 °F 41.0 °F 87% 30.24 in 10.0 mi NW 6.9 mph - N/A   Clear
8:15 AM 46.4 °F 43.5 °F 42.8 °F 87% 30.24 in 10.0 mi NW 5.8 mph - N/A Thunderstorm Clear
8:35 AM 53.6 °F - 44.6 °F 72% 30.25 in 10.0 mi NW 3.5 mph - N/A   Clear
8:55 AM 57.2 °F - 41.0 °F 55% 30.26 in 10.0 mi Calm Calm - N/A   Clear
9:15 AM 59.0 °F - 41.0 °F 51% 30.27 in 10.0 mi Calm Calm - N/A   Clear
9:35 AM 60.8 °F - 41.0 °F 48% 30.27 in 10.0 mi SE 6.9 mph - N/A   Clear
9:55 AM 64.4 °F - 39.2 °F 40% 30.27 in 10.0 mi SE 16.1 mph 21.9 mph N/A   Clear
10:15 AM 64.4 °F - 39.2 °F 40% 30.28 in 10.0 mi SE 13.8 mph 19.6 mph N/A   Clear
10:35 AM 64.4 °F - 39.2 °F 40% 30.28 in 10.0 mi ESE 9.2 mph - N/A   Clear
10:55 AM 66.2 °F - 37.4 °F 35% 30.27 in 10.0 mi SE 9.2 mph 18.4 mph N/A   Clear
11:15 AM 66.2 °F - 37.4 °F 35% 30.27 in 10.0 mi SSE 15.0 mph 18.4 mph N/A   Clear
11:35 AM 66.2 °F - 37.4 °F 35% 30.26 in 10.0 mi SSE 12.7 mph 18.4 mph N/A   Clear
11:55 AM 66.2 °F - 37.4 °F 35% 30.26 in 10.0 mi SSE 12.7 mph 19.6 mph N/A   Clear
12:15 PM 68.0 °F - 39.2 °F 35% 30.25 in 10.0 mi SE 11.5 mph 18.4 mph N/A Thunderstorm Clear
12:35 PM 68.0 °F - 37.4 °F 33% 30.25 in 10.0 mi SSE 8.1 mph 16.1 mph N/A   Clear
12:55 PM 68.0 °F - 37.4 °F 33% 30.24 in 10.0 mi SSE 9.2 mph - N/A   Clear
1:15 PM 68.0 °F - 39.2 °F 35% 30.23 in 10.0 mi SE 12.7 mph - N/A   Clear
1:35 PM 68.0 °F - 37.4 °F 33% 30.22 in 10.0 mi South 6.9 mph - N/A   Clear
1:55 PM 68.0 °F - 37.4 °F 33% 30.21 in 10.0 mi SE 9.2 mph - N/A   Clear
2:15 PM 69.8 °F - 37.4 °F 31% 30.20 in 10.0 mi SSW 12.7 mph - N/A   Clear
2:35 PM 69.8 °F - 37.4 °F 31% 30.20 in 10.0 mi SW 10.4 mph - N/A   Clear
2:55 PM 69.8 °F - 35.6 °F 28% 30.19 in 10.0 mi SW 6.9 mph 16.1 mph N/A   Clear
3:15 PM 71.6 °F - 33.8 °F 25% 30.19 in 10.0 mi SSW 4.6 mph - N/A   Clear
3:35 PM 71.6 °F - 35.6 °F 27% 30.18 in 10.0 mi South 9.2 mph - N/A   Clear
3:55 PM 71.6 °F - 35.6 °F 27% 30.17 in 10.0 mi SW 3.5 mph - N/A   Clear
4:15 PM 71.6 °F - 35.6 °F 27% 30.18 in 10.0 mi SSW 4.6 mph - N/A   Clear
4:35 PM 71.6 °F - 33.8 °F 25% 30.17 in 10.0 mi SSE 6.9 mph - N/A   Clear
4:55 PM 71.6 °F - 32.0 °F 23% 30.17 in 10.0 mi SSW 11.5 mph 16.1 mph N/A   Clear
5:15 PM 71.6 °F - 32.0 °F 23% 30.17 in 10.0 mi SSW 9.2 mph - N/A   Clear
5:35 PM 71.6 °F - 26.6 °F 19% 30.17 in 10.0 mi WSW 12.7 mph 16.1 mph N/A   Clear
5:55 PM 69.8 °F - 26.6 °F 20% 30.17 in 10.0 mi West 12.7 mph - N/A   Clear
6:15 PM 68.0 °F - 26.6 °F 21% 30.17 in 10.0 mi West 8.1 mph - N/A   Clear
6:35 PM 66.2 °F - 28.4 °F 24% 30.18 in 10.0 mi West 6.9 mph - N/A   Clear
6:55 PM 62.6 °F - 28.4 °F 27% 30.19 in 10.0 mi WNW 5.8 mph - N/A   Clear
7:15 PM 55.4 °F - 28.4 °F 36% 30.19 in 10.0 mi NW 8.1 mph - N/A   Clear
7:35 PM 53.6 °F - 28.4 °F 38% 30.20 in 10.0 mi NNW 9.2 mph - N/A   Clear
7:55 PM 53.6 °F - 28.4 °F 38% 30.20 in 10.0 mi NNW 10.4 mph - N/A   Clear
8:15 PM 51.8 °F - 30.2 °F 44% 30.21 in 10.0 mi North 9.2 mph - N/A   Clear
8:35 PM 53.6 °F - 32.0 °F 44% 30.21 in 10.0 mi North 8.1 mph - N/A   Clear
8:55 PM 51.8 °F - 32.0 °F 47% 30.21 in 10.0 mi North 8.1 mph - N/A   Clear
9:15 PM 51.8 °F - 30.2 °F 44% 30.22 in 10.0 mi North 6.9 mph - N/A   Clear
9:35 PM 51.8 °F - 28.4 °F 41% 30.21 in 10.0 mi North 9.2 mph - N/A   Clear
9:55 PM 55.4 °F - 26.6 °F 33% 30.21 in 10.0 mi North 13.8 mph - N/A   Clear
10:15 PM 55.4 °F - 26.6 °F 33% 30.22 in 10.0 mi North 13.8 mph - N/A   Clear
10:35 PM 53.6 °F - 24.8 °F 33% 30.22 in 10.0 mi North 15.0 mph - N/A   Clear
10:55 PM 53.6 °F - 26.6 °F 35% 30.22 in 10.0 mi North 12.7 mph - N/A   Clear
11:15 PM 53.6 °F - 24.8 °F 33% 30.22 in 10.0 mi NNW 11.5 mph - N/A   Clear
11:35 PM 51.8 °F - 26.6 °F 38% 30.22 in 10.0 mi NW 12.7 mph - N/A   Clear
11:55 PM 50.0 °F - 26.6 °F 40% 30.21 in 10.0 mi NNW 16.1 mph - N/A   Clear